User: anonymous   Login
Location: Unspecified
(0.0000°N, 0.0000°E)
Time: 20:01:50
(UTC+00:00)
Language:

STARLINK-11264 [DTC] - Orbit

View from above orbital plane
View from above orbital plane
View from above satellite
View from above satellite

Ground track
Ground track

The orbit is defined by the following mean orbital elements,

1 60906U          26145.61936274 +.00000000 +00000-0 +10626-4 0 00009
2 60906  53.1598 112.2814 0001188  95.9467 264.1686 15.69707748    08
Epoch (UTC): 25 May 2026 14:51:52
Eccentricity: 0.0001188
inclination: 53.1598°
perigee height: 359 km
apogee height: 361 km
right ascension of ascending node: 112.2814°
argument of perigee: 95.9467°
revolutions per day: 15.69707748
mean anomaly at epoch: 264.1686°

The dashed part of the orbit path shows where the satellite is in the earth's shadow,  

DLR